{"data":{"norad_id":55493,"intl_designator":"2023-015AW","name":"STARLINK-5362","alt_names":[],"object_type":"PAYLOAD","status":"ACTIVE","operator":null,"country":"US","launch_date":"2023-02-02","launch_site_code":"AFETR","launch_vehicle":null,"mission":null,"orbit_class":"UNKNOWN","rcs_meters":null,"size_class":null,"mass_kg":null,"dimensions":null,"purposes":["comms"],"wikipedia_slug":null,"has_3d_model":false,"image_url":null,"decayed_at":null,"tle_current":{"epoch":"2026-05-25T00:51:50.673888Z","epoch_age_seconds":82529,"freshness":"FRESH","line1":"1 55493U 23015AW  26145.03600317  .00000590  00000+0  30979-4 0  9990","line2":"2 55493  43.0008 268.3746 0001308 277.4752  82.5951 15.27575552182279","mean_motion":15.27575552,"eccentricity":0.0001308,"inclination_deg":43.0008,"raan_deg":268.3746,"arg_perigee_deg":277.4752,"mean_anomaly_deg":82.5951,"bstar":3.0979e-5,"rev_number":18227,"period_min":94.26702319991,"perigee_km":482.16497010065,"apogee_km":483.95985986761,"semimajor_km":6861.1994149841,"source":"CELESTRAK","updated_at":"2026-05-25T13:38:17.830714Z"}}}